DELTA 1 DEB, 7196

Orbit data source: Space-Track

DELTA 1 DEB, 7196 is space debris in SSO originally from a launch on Tue, 06 Nov 1973 UTC launched from the Air Force Western Test Range (AFWTR). Debris objects in space refer to the collection of defunct objects orbiting the Earth. Examples of debris include non-operational satellites, rocket bodies, and fragments generated from explosions, collisions, or faulty payload assembly.

Loading next visibility...
Identifier
7196, 1973-086FE
Orbit
SSO
Country
Flag of USUS
Related business
Manufacturer
Unknown
Mission
Spacecraft
Bus & Motor
Unknown
Mass
Unknown
Launch date (UTC)
1973-11-06 (52 years ago)
Launch vehicle
Unknown
Launch site
Air Force Western Test Range (AFWTR)
Object type
Payload
Rocket body
Debris
Shape & HBR
Unknown shape, 0.1 m
Radar Cross Section
Small (<0.1 m²)

Expand to show TLE details & history
Last TLE update: 1 day ago

TLE from 1 day ago
0 DELTA 1 DEB
1 07196U 73086FE  26032.93549272 -.00000016  00000-0  21806-3 0  9999
2 07196 102.4075  28.5622 0051855 118.4316 299.5302 12.47074833377092
Epoch: 2026-02-01T22:27Z
TLE epoch observation values (Epoch: 2026-02-01T22:27:06.571Z)
Latitude
55.49865°
Longitude
-98.92634°
Altitude
1,465.82 km
Speed
7.144 km/s
True Right ascension
00h 39m 57s
True Declination
55° 21' 09"
Sunlit
Object was in daylight at epoch
Visualization orbit readout
Latitude
Unknown
Longitude
Unknown
Altitude
Unknown
Speed
Unknown
Apparent Right ascension
Unknown
Apparent Declination
Unknown
Sunlit
N/A
Visualization observer readout
Local Sidereal Time
03:35:35
Azimuth
Unknown
Elevation
Unknown
Doppler factor
Unknown
Orbital elements
Apogee altitude
1,515.063 km
Perigee altitude
1,433.625 km
Semi-major axis
7,852.481 km
Eccentricity
0.00519
Inclination
102.4075°
RAAN
28.5622°
Arg. of periapsis
118.4316°
True anomaly
299.01153°
Mean anomaly
299.5302°
Eccentric anomaly
299.27103°
Mean motion
3.11913 °/min
Orbital period
115.42 mins
BSTAR
0.00021806
Loading maneuver chart data...
Computing Atmospheric mass density...
Loading historical data...
Loading historical data...
Loading historical data...
Loading historical data...
Loading historical data...
Loading historical data...
Loading historical data...

Documentation

Showing up to 5 results
|